EDT,Max TemperatureF,Mean TemperatureF,Min TemperatureF,Max Dew PointF,MeanDew PointF,Min DewpointF,Max Humidity, Mean Humidity, Min Humidity, Max Sea Level PressureIn, Mean Sea Level PressureIn, Min Sea Level PressureIn, Max VisibilityMiles, Mean VisibilityMiles, Min VisibilityMiles, Max Wind SpeedMPH, Mean Wind SpeedMPH, Max Gust SpeedMPH,PrecipitationIn, CloudCover, Events, WindDirDegrees
2013-9-1,85,76,67,70,68,65,93,78,63,29.83,29.78,29.73,10,7,1,12,4,15,T,6,Rain,220
2013-9-2,77,68,59,68,60,49,93,73,53,29.98,29.86,29.76,10,10,8,23,10,26,0.01,5,,341
2013-9-3,75,65,54,55,52,48,86,68,49,30.07,30.03,29.97,10,10,10,15,7,20,0.00,3,,334
2013-9-4,79,66,53,60,56,51,93,68,42,30.13,30.09,30.05,10,10,10,18,6,22,0.00,0,,258
2013-9-5,74,63,52,60,47,34,90,58,25,30.27,30.23,30.13,10,10,10,10,4,16,0.00,2,,34
2013-9-6,80,65,50,55,49,45,83,58,32,30.28,30.20,30.07,10,10,10,12,5,21,0.00,0,,179
2013-9-7,86,74,61,64,60,54,78,61,44,30.06,29.99,29.93,10,10,10,14,6,17,0.00,2,,222
2013-9-8,80,72,64,65,62,58,93,73,52,30.08,30.02,29.96,10,10,8,10,5,16,0.00,4,,75
2013-9-9,86,73,59,71,63,56,90,74,57,30.05,29.98,29.87,10,8,2,12,6,30,1.08,4,Rain-Thunderstorm,155
2013-9-10,94,84,73,71,66,60,79,56,33,30.02,29.98,29.89,10,10,9,18,9,26,T,0,,229
2013-9-11,91,80,68,71,67,64,90,71,52,30.04,30.01,29.97,10,10,9,24,8,28,0.03,2,Rain-Thunderstorm,253
2013-9-12,78,67,55,66,57,47,90,66,42,30.04,29.96,29.90,10,10,10,22,9,29,T,2,,328
2013-9-13,62,54,45,47,43,39,86,65,43,30.16,30.11,30.05,10,10,10,16,7,24,0.00,2,,360
2013-9-14,69,55,40,46,40,37,100,66,31,30.22,30.16,30.10,10,7,0,12,3,15,0.00,0,Fog,212
2013-9-15,59,53,46,55,50,43,93,80,66,30.16,30.10,30.08,10,10,5,9,2,13,0.20,5,Rain,162
2013-9-16,64,55,46,54,49,43,93,74,55,30.38,30.28,30.16,10,10,7,12,5,15,0.01,6,Rain,15
2013-9-17,70,56,41,49,44,39,89,65,40,30.41,30.33,30.22,10,10,10,9,3,14,0.00,0,,130
2013-9-18,80,66,51,55,51,47,89,61,33,30.20,30.10,30.01,10,10,10,16,4,20,T,1,,171
2013-9-19,72,67,62,67,63,53,93,76,59,30.02,29.97,29.88,10,10,7,18,7,23,0.09,4,Rain-Thunderstorm,182
2013-9-20,73,68,63,70,66,57,93,83,73,29.88,29.81,29.76,10,7,2,16,9,21,0.13,6,Rain,226
2013-9-21,68,61,54,55,50,45,87,66,45,29.92,29.82,29.74,10,10,10,21,11,28,0.01,5,Rain,313
2013-9-22,59,52,45,45,42,40,92,74,55,30.09,30.03,29.93,10,10,10,14,4,18,0.00,5,,22
2013-9-23,65,52,38,46,42,37,93,73,52,30.19,30.14,30.09,10,10,8,10,3,23,0.00,3,,96
2013-9-24,69,55,40,48,44,37,100,72,44,30.16,30.09,30.00,10,9,6,12,3,17,0.00,0,,114
2013-9-25,72,59,45,51,47,44,93,69,44,30.02,29.99,29.96,10,8,2,9,2,13,0.00,0,Rain,59
2013-9-26,78,60,42,52,46,42,93,61,29,30.14,30.06,30.00,10,7,0,9,2,14,0.00,0,Fog,55
2013-9-27,78,61,43,53,49,42,93,66,39,30.24,30.18,30.14,10,10,9,10,3,15,0.00,0,,126
2013-9-28,80,65,49,55,51,48,89,62,35,30.17,30.10,29.98,10,8,2,17,6,23,0.00,0,,166
2013-9-29,68,61,53,61,54,50,93,75,56,30.04,29.99,29.94,10,10,7,15,6,26,0.17,6,Rain,293
2013-9-30,72,59,46,55,48,44,100,69,38,30.03,29.99,29.94,10,6,0,12,3,17,0.00,1,Fog,186